Home   Weather   Amadora   Past weeks

Flag for Portugal Past Weather in Amadora, Portugal — Yesterday and Last 2 Weeks

Now
72 °F

Passing clouds.


Feels Like: 77 °F
Forecast: 57 / 72 °F
Wind: 9 mph from Northwest

Location: Lisbon Portela Airport

Current Time: Apr 23, 2017 at 7:10:20 pm

Latest Report: Apr 23, 2017 at 6:30 pm


Visibility: N/A

Pressure: 29.95 "Hg

Humidity: 36%

Dew Point: 43 °F

Location of AmadoraLocation

Past Weather in Amadora — Graph

°F

Amadora Temperature Yesterday

Maximum temperature yesterday: 75 °F (at 3:30 pm)
Minimum temperature yesterday: 55 °F (at 6:00 am)
Average temperature yesterday: 64 °F

High & Low Weather Summary for the Past Weeks

 TemperatureHumidityPressure
High82 °F (Apr 11, 4:00 pm)100% (Apr 9, 6:00 am)30.21 "Hg (Apr 9, 6:00 am)
Low52 °F (Apr 9, 6:00 am)16% (Apr 17, 4:00 pm)29.77 "Hg (Apr 19, 3:30 am)
Average65 °F62%30.05 "Hg
* Reported Apr 8 5:00 pm — Apr 23 5:30 pm, Amadora, Weather by CustomWeather, © 2017

Note: Actual official high and low records may vary slightly from our data, if they occured in-between our weather recording intervals... More about our weather records

Advertising

Amadora Weather History for the Previous 24 Hours

Scroll right to see more
 ConditionsComfort  
Time TempWeatherWind HumidityBarometerVisibility
5:30 pm
Sun, Apr 23
73 °FSunny.9 mph41%29.95 "Hg10 mi
5:00 pm73 °FPassing clouds.12 mph47%29.95 "HgN/A
4:30 pm75 °FPassing clouds.8 mph47%29.95 "HgN/A
4:00 pm75 °FPassing clouds.10 mph39%29.98 "HgN/A
3:30 pm75 °FPassing clouds.13 mph39%29.98 "HgN/A
3:00 pm77 °FPassing clouds.12 mph42%29.98 "HgN/A
2:00 pm75 °FPassing clouds.7 mph31%29.98 "HgN/A
1:30 pm75 °FPassing clouds.5 mph31%30.01 "HgN/A
1:00 pm73 °FPassing clouds.8 mph33%30.01 "HgN/A
12:30 pm73 °FSunny.5 mph33%30.01 "Hg10 mi
12:00 pm73 °FPassing clouds.7 mph31%30.01 "HgN/A
11:30 am72 °FPassing clouds.6 mph33%30.01 "HgN/A
11:00 am72 °FPassing clouds.5 mph41%30.01 "HgN/A
10:30 am70 °FSunny.6 mph40%30.01 "Hg10 mi
10:00 am66 °FPassing clouds.5 mph52%30.01 "HgN/A
9:30 am64 °FSunny.6 mph56%30.01 "Hg10 mi
9:00 am63 °FPassing clouds.6 mph59%30.01 "HgN/A
8:30 am63 °FPassing clouds.5 mph56%30.01 "HgN/A
8:00 am61 °FSunny.7 mph59%30.01 "Hg10 mi
7:30 am61 °FSunny.7 mph59%30.01 "Hg10 mi
7:00 am61 °FSunny.7 mph55%30.01 "Hg10 mi
6:30 am61 °FClear.6 mph55%30.01 "Hg10 mi
6:00 am63 °FClear.6 mph49%30.01 "Hg10 mi
5:30 am63 °FClear.3 mph52%30.01 "Hg10 mi
5:00 am63 °FPassing clouds.5 mph49%30.01 "HgN/A
4:30 am63 °FPassing clouds.5 mph49%30.01 "HgN/A
3:30 am61 °FClear.6 mph59%30.01 "Hg10 mi
3:00 am61 °FClear.6 mph59%30.04 "Hg10 mi
2:30 am61 °FClear.7 mph63%30.04 "Hg10 mi
2:00 am61 °FClear.8 mph63%30.04 "Hg10 mi
1:30 am61 °FPassing clouds.7 mph63%30.04 "HgN/A
1:00 am61 °FClear.7 mph68%30.04 "Hg10 mi
12:30 am61 °FClear.8 mph68%30.07 "Hg10 mi
12:00 am61 °FClear.9 mph68%30.07 "Hg10 mi
11:30 pm
Sat, Apr 22
61 °FClear.10 mph68%30.07 "Hg10 mi
11:00 pm61 °FPassing clouds.12 mph68%30.07 "HgN/A
10:30 pm61 °FClear.13 mph68%30.07 "Hg10 mi
10:00 pm61 °FClear.12 mph72%30.07 "Hg10 mi
9:30 pm63 °FClear.13 mph68%30.07 "Hg10 mi
9:00 pm63 °FClear.13 mph73%30.07 "Hg10 mi
8:30 pm64 °FPassing clouds.12 mph64%30.07 "HgN/A
7:30 pm66 °FSunny.10 mph60%30.04 "Hg10 mi
7:00 pm66 °FSunny.9 mph60%30.04 "Hg10 mi
Weather by CustomWeather, © 2017

See weather overviewHow to use our weather pages